OBJECT BP, 60529

Orbit data source: Space-Track

You're viewing an Uncataloged Satellite

Recently launched and/or uncataloged satellites may have evolving metadata. Metadata may include but not limited to: Owner, Maufacturer, Bus, Motor, and Mission.

OBJECT BP, 60529 is a satellite in SSO that was launched on Fri, 16 Aug 2024 UTC via an FALCON 9 launch vehicle from the Air Force Western Test Range (AFWTR). Unknown objects in Earth's orbit typically refer to objects detected orbiting the Earth but have not yet been identified or cataloged. These objects could be anything from previously untracked satellites, spent rocket stages, debris from satellite collisions, or even natural meteoroids temporarily captured by Earth's gravity.

Loading next visibility...
Identifier
60529, 2024-149BP
Orbit
SSO
Country
Flag of TBDTBD
Related business
Flag of SNSenegalese Space Project, Ministry of Higher Education, Research and Innovation (SN)
Manufacturer
Montpellier
Mission
Operational Civil Technology
Bus & Motor
CUBESAT 1U, Unknown motor
Mass
1 kg wet, 1 kg dry
Launch date (UTC)
2024-08-16 (1 year ago)
Launch vehicle
FALCON 9
Launch site
Air Force Western Test Range (AFWTR)
Object type
Unknown
Shape & HBR
Box, 0.1 m
Radar Cross Section
0.015 m², Small (<0.1 m²)

Expand to show TLE details & history
Last TLE update: 5 hours ago

TLE from 5 hours ago
0 OBJECT BP
1 60529U 24149BP  25312.18708159  .00131381  00000-0  14379-2 0  9997
2 60529  97.3969  38.1164 0003431 319.4473  40.6529 15.62854348 68884
Epoch: 2025-11-08T04:29Z
TLE epoch observation values (Epoch: 2025-11-08T04:29:23.849Z)
Latitude
-0.00004°
Longitude
-76.85326°
Altitude
380.806 km
Speed
7.682 km/s
True Right ascension
02h 32m 27s
True Declination
0° 00' 00"
Sunlit
Object was in full shadow at epoch
Visualization orbit readout
Latitude
Unknown
Longitude
Unknown
Altitude
Unknown
Speed
Unknown
Apparent Right ascension
Unknown
Apparent Declination
Unknown
Sunlit
N/A
Visualization observer readout
Local Sidereal Time
05:10:58
Azimuth
Unknown
Elevation
Unknown
Doppler factor
Unknown
Orbital elements
Apogee altitude
378.643 km
Perigee altitude
374.008 km
Semi-major axis
6,754.462 km
Eccentricity
0.00034
Inclination
97.3969°
RAAN
38.1164°
Arg. of periapsis
319.4473°
True anomaly
40.67852°
Mean anomaly
40.6529°
Eccentric anomaly
40.66571°
Mean motion
3.90982 °/min
Orbital period
92.08 mins
BSTAR
0.0014379
Loading maneuver chart data...
Computing Atmospheric mass density...
Loading historical data...
Loading historical data...
Loading historical data...
Loading historical data...
Loading historical data...
Loading historical data...
Loading historical data...

Documentation

Showing up to 5 results
|